Location: Krakow
(50.0830°N, 19.9170°E)
Time: 09:54:34
(UTC+02:00)

ACS3 Solar Sail - Visible Passes

Search period start: 20 May 2026 00:00
Search period end: 30 May 2026 00:00
Orbit: 902 x 937 km, 97.2° (Epoch: 19 May)

Date Brightness Start Highest point End Pass type
(mag) Time Alt. Az. Time Alt. Az. Time Alt. Az.
20 May 3.0 00:27:27 10° NNE 00:32:30 28° E 00:35:10 20° SE visible
20 May 2.0 02:09:22 10° N 02:15:08 56° WNW 02:18:37 24° SW visible
20 May 3.8 03:53:54 10° NNW 03:56:15 13° NW 03:58:36 10° WNW visible
21 May 2.8 00:35:38 10° NNE 00:40:56 33° E 00:43:40 23° SE visible
21 May 2.2 02:17:47 10° N 02:23:26 49° WNW 02:27:08 21° SW visible
21 May 3.9 04:03:01 10° NW 04:04:25 11° NW 04:05:50 10° WNW visible
22 May 2.6 00:43:52 10° NNE 00:49:22 38° E 00:52:10 25° SE visible
22 May 2.4 02:26:12 10° N 02:31:44 42° WNW 02:35:38 19° SW visible
23 May 2.3 00:52:08 10° NNE 00:57:47 45° E 01:00:40 27° SSE visible
23 May 2.6 02:34:39 10° N 02:40:01 37° WNW 02:44:07 16° WSW visible
24 May 2.1 01:00:24 10° NNE 01:06:11 52° E 01:09:09 28° SSE visible
24 May 2.8 02:43:07 10° N 02:48:16 32° WNW 02:52:37 14° WSW visible
24 May 3.9 23:30:03 10° ENE 23:31:01 10° E 23:31:58 10° E visible
25 May 1.9 01:08:42 10° NNE 01:14:34 60° E 01:17:39 29° S visible
25 May 3.0 02:51:36 10° N 02:56:31 28° WNW 03:01:07 11° WSW visible
25 May 3.8 23:37:04 10° NE 23:39:33 13° E 23:42:01 10° ESE visible
26 May 1.8 01:17:01 10° NNE 01:22:57 70° E 01:26:08 29° S visible
26 May 3.2 03:00:06 10° N 03:04:45 25° WNW 03:09:26 10° WSW visible
26 May 3.7 23:44:46 10° NE 23:48:03 15° E 23:51:09 10° ESE visible
27 May 1.7 01:25:20 10° NNE 01:31:19 81° ESE 01:34:37 28° S visible
27 May 3.3 03:08:37 10° N 03:12:59 22° WNW 03:17:21 10° WSW visible
27 May 3.5 23:52:40 10° NE 23:56:33 18° E 23:59:38 12° ESE visible
28 May 1.7 01:33:41 10° NNE 01:39:40 88° W 01:43:06 27° SSW visible
28 May 3.5 03:17:10 10° NNW 03:21:12 19° NW 03:25:13 10° W visible
29 May 3.4 00:00:40 10° NE 00:05:02 21° E 00:08:07 14° ESE visible
29 May 1.7 01:42:03 10° N 01:47:59 77° WNW 01:51:34 25° SSW visible
29 May 3.6 03:25:47 10° NNW 03:29:23 17° NW 03:33:00 10° W visible
